EN

Hourly Weather Amangeldy (Ordabasinskiy rayon)

Today, 22 January, Friday

Time Temperature Precipitation Wind Pressure Humidity
00:00 +3°C° 2.8 mm 4 mps 732 mmHg 77%
01:00 +1°C° 2.8 mm 5 mps 733 mmHg 87%
02:00 0°C° 2.8 mm 5 mps 733 mmHg 96%
03:00 -3°C° 1 mm 6 mps 735 mmHg 95%
04:00 -4°C° 1 mm 7 mps 737 mmHg 94%
05:00 -6°C° 1 mm 8 mps 738 mmHg 93%
06:00 -7°C° 1 mm 8 mps 740 mmHg 93%
07:00 -8°C° 1 mm 7 mps 742 mmHg 93%
08:00 -9°C° 1 mm 7 mps 744 mmHg 93%
09:00 -9°C° 0.4 mm 7 mps 745 mmHg 89%
10:00 -10°C° 0.4 mm 6 mps 746 mmHg 85%
11:00 -10°C° 0.4 mm 6 mps 747 mmHg 81%
12:00 -10°C° 0 mm 5 mps 748 mmHg 78%
13:00 -8°C° 0 mm 5 mps 748 mmHg 76%
14:00 -8°C° 0 mm 5 mps 749 mmHg 73%
15:00 -8°C° 0 mm 4 mps 749 mmHg 74%
16:00 -8°C° 0 mm 4 mps 750 mmHg 75%
17:00 -8°C° 0 mm 4 mps 750 mmHg 76%
18:00 -7°C° 0 mm 3 mps 750 mmHg 78%
19:00 -8°C° 0 mm 3 mps 750 mmHg 80%
20:00 -8°C° 0 mm 3 mps 751 mmHg 82%
21:00 -8°C° 0 mm 4 mps 751 mmHg 80%
22:00 -8°C° 0 mm 5 mps 751 mmHg 78%
23:00 -9°C° 0 mm 6 mps 751 mmHg 76%

Tomorrow, 23 January, Saturday

Time Temperature Precipitation Wind Pressure Humidity
00:00 -9°C° 0 mm 6 mps 751 mmHg 79%
01:00 -9°C° 0 mm 6 mps 751 mmHg 81%
02:00 -8°C° 0 mm 6 mps 750 mmHg 83%
03:00 -9°C° 0 mm 6 mps 750 mmHg 82%
04:00 -9°C° 0 mm 6 mps 750 mmHg 81%
05:00 -9°C° 0 mm 6 mps 750 mmHg 79%
06:00 -8°C° 0 mm 6 mps 750 mmHg 80%
07:00 -8°C° 0 mm 7 mps 751 mmHg 81%
08:00 -8°C° 0 mm 7 mps 751 mmHg 82%
09:00 -7°C° 0 mm 8 mps 751 mmHg 78%
10:00 -8°C° 0 mm 9 mps 751 mmHg 75%
11:00 -7°C° 0 mm 10 mps 750 mmHg 71%
12:00 -7°C° 0.1 mm 10 mps 750 mmHg 73%
13:00 -7°C° 0.1 mm 10 mps 750 mmHg 76%
14:00 -7°C° 0.1 mm 10 mps 749 mmHg 78%
15:00 -7°C° 0.2 mm 10 mps 749 mmHg 81%
16:00 -7°C° 0.2 mm 10 mps 749 mmHg 84%
17:00 -7°C° 0.2 mm 10 mps 749 mmHg 87%
18:00 -7°C° 0.6 mm 10 mps 750 mmHg 89%
19:00 -7°C° 0.6 mm 10 mps 750 mmHg 90%
20:00 -7°C° 0.6 mm 10 mps 751 mmHg 92%
21:00 -6°C° 0.4 mm 9 mps 751 mmHg 91%
22:00 -6°C° 0.4 mm 9 mps 751 mmHg 91%
23:00 -6°C° 0.4 mm 9 mps 751 mmHg 90%

Day after tomorrow, 24 January, Sunday

Time Temperature Precipitation Wind Pressure Humidity
00:00 -6°C° 0.2 mm 8 mps 752 mmHg 88%
01:00 -6°C° 0.2 mm 7 mps 752 mmHg 86%
02:00 -5°C° 0.2 mm 6 mps 752 mmHg 84%
03:00 -6°C° 0 mm 5 mps 752 mmHg 86%
04:00 -5°C° 0 mm 4 mps 752 mmHg 87%
05:00 -5°C° 0 mm 3 mps 751 mmHg 88%
06:00 -4°C° 0 mm 2 mps 752 mmHg 88%
07:00 -4°C° 0 mm 2 mps 752 mmHg 87%
08:00 -3°C° 0 mm 1 mps 752 mmHg 86%
09:00 -2°C° 0 mm 1 mps 752 mmHg 85%
10:00 -1°C° 0 mm 1 mps 752 mmHg 84%
11:00 0°C° 0 mm 1 mps 752 mmHg 82%
12:00 0°C° 0 mm 1 mps 752 mmHg 83%
13:00 +1°C° 0 mm 1 mps 751 mmHg 83%
14:00 +1°C° 0 mm 1 mps 751 mmHg 83%
15:00 -2°C° 0 mm 2 mps 750 mmHg 85%
16:00 -3°C° 0 mm 2 mps 750 mmHg 87%
17:00 -3°C° 0 mm 2 mps 750 mmHg 89%
18:00 -4°C° 0 mm 2 mps 750 mmHg 88%
19:00 -5°C° 0 mm 2 mps 750 mmHg 87%
20:00 -5°C° 0 mm 2 mps 750 mmHg 86%
21:00 -6°C° 0 mm 2 mps 750 mmHg 86%
22:00 -6°C° 0 mm 2 mps 750 mmHg 85%
23:00 -6°C° 0 mm 2 mps 749 mmHg 84%

25 January, Monday

Time Temperature Precipitation Wind Pressure Humidity
00:00 -4°C° 0 mm 1 mps 749 mmHg 83%
01:00 -6°C° 0 mm 1 mps 749 mmHg 82%
02:00 -6°C° 0 mm 1 mps 749 mmHg 81%
03:00 -6°C° 0 mm 1 mps 748 mmHg 81%
04:00 -6°C° 0 mm 1 mps 748 mmHg 80%
05:00 -6°C° 0 mm 1 mps 748 mmHg 79%
06:00 -6°C° 0 mm 1 mps 748 mmHg 79%
07:00 -6°C° 0 mm 1 mps 748 mmHg 78%
08:00 -7°C° 0 mm 1 mps 748 mmHg 78%
09:00 -4°C° 0 mm 1 mps 748 mmHg 75%
10:00 -3°C° 0 mm 1 mps 748 mmHg 73%
11:00 -1°C° 0 mm 1 mps 748 mmHg 71%
12:00 -1°C° 0 mm 1 mps 748 mmHg 71%
13:00 0°C° 0 mm 1 mps 748 mmHg 72%
14:00 0°C° 0 mm 1 mps 747 mmHg 72%
15:00 0°C° 0 mm 1 mps 747 mmHg 75%
16:00 -1°C° 0 mm 1 mps 747 mmHg 78%
17:00 -2°C° 0 mm 1 mps 747 mmHg 81%
18:00 -2°C° 0 mm 1 mps 747 mmHg 80%
19:00 -3°C° 0 mm 1 mps 748 mmHg 80%
20:00 -3°C° 0 mm 1 mps 748 mmHg 79%
21:00 -4°C° 0 mm 1 mps 748 mmHg 78%
22:00 -4°C° 0 mm 1 mps 748 mmHg 78%
23:00 -4°C° 0 mm 1 mps 748 mmHg 77%

26 January, Tuesday

Time Temperature Precipitation Wind Pressure Humidity
00:00 -4°C° 0 mm 1 mps 747 mmHg 77%
01:00 -4°C° 0 mm 1 mps 747 mmHg 76%
02:00 -4°C° 0 mm 1 mps 747 mmHg 76%
03:00 -4°C° 0 mm 1 mps 747 mmHg 76%
04:00 -4°C° 0 mm 1 mps 747 mmHg 75%
05:00 -4°C° 0 mm 1 mps 747 mmHg 75%
06:00 -4°C° 0 mm 1 mps 747 mmHg 74%
07:00 -4°C° 0 mm 1 mps 747 mmHg 73%
08:00 -4°C° 0 mm 1 mps 747 mmHg 72%
09:00 -3°C° 0 mm 1 mps 747 mmHg 71%
10:00 -1°C° 0 mm 1 mps 747 mmHg 70%
11:00 0°C° 0 mm 1 mps 747 mmHg 68%
12:00 +1°C° 0 mm 1 mps 747 mmHg 69%
13:00 +1°C° 0 mm 1 mps 747 mmHg 69%
14:00 +2°C° 0 mm 1 mps 746 mmHg 70%
15:00 +1°C° 0 mm 1 mps 746 mmHg 72%
16:00 -2°C° 0 mm 2 mps 746 mmHg 74%
17:00 -3°C° 0 mm 2 mps 746 mmHg 77%
18:00 -3°C° 0 mm 2 mps 746 mmHg 76%
19:00 -3°C° 0 mm 2 mps 747 mmHg 76%
20:00 -2°C° 0 mm 1 mps 747 mmHg 75%
21:00 -2°C° 0 mm 1 mps 747 mmHg 74%
22:00 -2°C° 0 mm 1 mps 747 mmHg 73%
23:00 -4°C° 0 mm 2 mps 747 mmHg 72%

27 January, Wednesday

Time Temperature Precipitation Wind Pressure Humidity
00:00 -4°C° 0 mm 2 mps 746 mmHg 71%
01:00 -4°C° 0 mm 2 mps 746 mmHg 70%
02:00 -4°C° 0 mm 2 mps 746 mmHg 69%
03:00 -5°C° 0 mm 2 mps 746 mmHg 68%
04:00 -5°C° 0 mm 2 mps 746 mmHg 67%
05:00 -3°C° 0 mm 1 mps 746 mmHg 66%
06:00 -3°C° 0 mm 1 mps 746 mmHg 65%
07:00 -3°C° 0 mm 1 mps 746 mmHg 65%
08:00 -5°C° 0 mm 2 mps 747 mmHg 64%
09:00 -1°C° 0 mm 1 mps 747 mmHg 63%
10:00 0°C° 0 mm 1 mps 747 mmHg 62%
11:00 +2°C° 0 mm 1 mps 747 mmHg 61%
12:00 +2°C° 0 mm 1 mps 746 mmHg 62%
13:00 +3°C° 0 mm 1 mps 746 mmHg 63%
14:00 +4°C° 0 mm 1 mps 746 mmHg 64%
15:00 +3°C° 0 mm 1 mps 746 mmHg 66%
16:00 +2°C° 0 mm 1 mps 746 mmHg 68%
17:00 -1°C° 0 mm 2 mps 746 mmHg 70%
18:00 -2°C° 0 mm 2 mps 746 mmHg 70%
19:00 -2°C° 0 mm 2 mps 746 mmHg 69%
20:00 -3°C° 0 mm 2 mps 746 mmHg 69%
21:00 -3°C° 0 mm 2 mps 746 mmHg 68%
22:00 -3°C° 0 mm 2 mps 746 mmHg 66%
23:00 -3°C° 0 mm 2 mps 746 mmHg 65%
Show more